This is the latest recevied weather packets stored in our database for station/object K2ATL. If no packets are shown the sender has not sent any weather packets the latest 10 day(s).
| Time | Temp. | Humidity | Pressure | Rain* | Wind** | Luminosity | Snow |
|---|---|---|---|---|---|---|---|
| 1777630329 | 10° C | 69% | 1097.7 hPa | 0 mm | - | 0 W/m² | - |
| 1777630027 | 10.56° C | 70% | 1097.8 hPa | 0 mm | - | 0 W/m² | - |
| 1777629724 | 10.56° C | 69% | 1097.7 hPa | 0 mm | - | 0 W/m² | - |
| 1777629421 | 11.67° C | 66% | 1097.6 hPa | 0 mm | - | 0 W/m² | - |
| 1777629116 | 11.67° C | 61% | 1097.8 hPa | 0 mm | - | 0 W/m² | - |
| 1777628813 | 11.67° C | 59% | 1097.6 hPa | 0 mm | - | 0 W/m² | - |
| 1777628509 | 11.67° C | 58% | 1097.7 hPa | 0 mm | - | 0 W/m² | - |
| 1777628206 | 11.67° C | 58% | 1097.5 hPa | 0 mm | - | 0 W/m² | - |
| 1777627902 | 11.67° C | 58% | 1097.7 hPa | 0 mm | - | 0 W/m² | - |
| 1777627601 | 11.11° C | 62% | 1097.7 hPa | 0 mm | - | 0 W/m² | - |
| 1777627295 | 11.11° C | 63% | 1097.7 hPa | 0 mm | - | 0 W/m² | - |
| 1777626993 | 11.67° C | 61% | 1097.5 hPa | 0 mm | - | 0 W/m² | - |
| 1777626689 | 11.67° C | 59% | 1097.6 hPa | 0 mm | - | 0 W/m² | - |
| 1777626385 | 11.67° C | 60% | 1097.3 hPa | 0 mm | - | 0 W/m² | - |
| 1777626084 | 11.11° C | 62% | 1097.4 hPa | 0 mm | - | 0 W/m² | - |
| 1777625779 | 11.11° C | 66% | 1097.5 hPa | 0 mm | - | 0 W/m² | - |
| 1777625475 | 11.11° C | 64% | 1097.7 hPa | 0 mm | - | 0 W/m² | - |
| 1777625170 | 11.11° C | 65% | 1097.6 hPa | 0 mm | - | 0 W/m² | - |
| 1777624867 | 11.11° C | 65% | 1097.6 hPa | 0 mm | - | 0 W/m² | - |
| 1777624563 | 11.11° C | 64% | 1097.5 hPa | 0 mm | - | 0 W/m² | - |
| 1777624263 | 10.56° C | 66% | 1097.5 hPa | 0 mm | - | 0 W/m² | - |
| 1777623962 | 10.56° C | 68% | 1097.4 hPa | 0 mm | - | 0 W/m² | - |
| 1777623658 | 10.56° C | 67% | 1097.6 hPa | 0 mm | - | 0 W/m² | - |
| 1777623356 | 10.56° C | 68% | 1097.4 hPa | 0 mm | - | 0 W/m² | - |
| 1777623052 | 10.56° C | 68% | 1097.6 hPa | 0 mm | - | 0 W/m² | - |
* Rain latest hour (hover to see other rain measurements)
** Current wind speed in m/s (hover to see current wind gust speed)